Location: Azenweiler
(47.8027°N, 9.4096°E)
Time: 03:24:56
(UTC+00:00)

Cosmos 1626 Rocket - Pass Details

Date: 23 March 2026
Orbit: 596 x 624 km, 82.5° (Epoch: 13 April)

Event Time Altitude Azimuth Distance (km) Brightness Sun altitude
Rises 01:48:42 0° 4° (N) 2,886 7.7 -32.6°
Reaches altitude 10° 01:51:40 10° 25° (NNE) 1,970 6.9 -32.2°
Maximum altitude 01:54:30 17° 66° (ENE) 1,560 6.2 -31.9°
Drops below altitude 10° 01:57:19 10° 107° (ESE) 1,949 6.4 -31.6°
Enters shadow 01:58:06 - 115° (ESE) 2,164 6.6 -31.5°
